VK1ET-13 Weather Reports


Display with metric or nautical units.
time (UTC)temp
F
wind
direction
speed
MPH
gust
MPH
rain 1hr
in
rain 24hr
in
rain mn
in
humidity
%
barometer
mb
20260510152041 52 262 1.0 3.0 0.00 0.00 0.00 95 1031.4
20260510150529 51 206 1.0 2.0 0.00 0.00 0.00 95 1031.4
20260510145527 51 123 1.0 2.0 0.00 0.00 0.00 95 1031.5
20260510144036 52 141 1.0 2.0 0.00 0.00 0.00 96 1031.5
20260510143020 53 317 1.0 2.0 0.00 0.00 0.00 95 1031.5
20260510142019 52 30 2.0 4.0 0.00 0.00 0.00 95 1031.8
20260510140534 52 20 2.0 3.0 0.00 0.00 0.00 95 1031.9
20260510135533 52 16 3.0 5.0 0.00 0.00 0.00 95 1031.7
20260510135017 52 183 2.0 4.0 0.00 0.00 0.00 95 1031.7
20260510134026 51 152 3.0 6.0 0.00 0.00 0.00 95 1031.5
20260510133034 52 155 4.0 6.0 0.00 0.00 0.00 94 1031.6
20260510132530 53 171 3.0 5.0 0.00 0.00 0.00 94 1031.8
20260510131520 53 188 2.0 5.0 0.00 0.00 0.00 93 1031.8
20260510130530 54 164 1.0 3.0 0.00 0.00 0.00 93 1031.9
20260510125528 54 118 1.0 3.0 0.00 0.00 0.00 92 1032.1
20260510124030 54 155 3.0 4.0 0.00 0.00 0.00 92 1032.3
20260510123022 54 0.0 0.0 0.00 0.00 0.00 91 1032.2
20260510122020 55 0.0 0.0 0.00 0.00 0.00 90 1032.3
20260510120535 55 0.0 0.0 0.00 0.00 0.00 88 1032.2
20260510115533 56 0.0 1.0 0.00 0.00 0.00 87 1032.4
20260510114530 56 115 0.0 2.0 0.00 0.00 0.00 86 1032.3
20260510113043 57 0.0 1.0 0.00 0.00 0.00 85 1032.0
20260510112035 57 65 2.0 3.0 0.00 0.00 0.00 85 1032.1
20260510110530 56 110 2.0 5.0 0.00 0.00 0.00 85 1031.8
20260510105535 57 210 4.0 5.0 0.00 0.00 0.00 83 1031.7
20260510104518 58 192 3.0 4.0 0.00 0.00 0.00 82 1031.6
20260510103527 58 185 3.0 4.0 0.00 0.00 0.00 80 1031.6
20260510102526 58 184 4.0 7.0 0.00 0.00 0.00 81 1031.5
20260510101020 59 199 3.0 5.0 0.00 0.00 0.00 79 1031.4
20260510100019 59 208 3.0 7.0 0.00 0.00 0.00 79 1031.2
20260510095523 60 221 3.0 6.0 0.00 0.00 0.00 78 1031.3
20260510094533 60 139 3.0 7.0 0.00 0.00 0.00 77 1031.1
20260510093522 60 164 2.0 3.0 0.00 0.00 0.00 77 1031.0
20260510092520 61 90 3.0 8.0 0.00 0.00 0.00 76 1030.9
20260510091528 61 72 2.0 5.0 0.00 0.00 0.00 75 1030.7
20260510090529 62 78 3.0 8.0 0.00 0.00 0.00 73 1030.3
20260510085526 62 68 4.0 9.0 0.00 0.00 0.00 72 1030.1
20260510084529 63 78 4.0 8.0 0.00 0.00 0.00 69 1030.0
20260510083536 63 65 5.0 9.0 0.00 0.00 0.00 66 1029.7
20260510082523 63 71 3.0 6.0 0.00 0.00 0.00 64 1029.7
20260510081516 64 42 1.0 4.0 0.00 0.00 0.00 61 1029.3
20260510080526 65 81 0.0 2.0 0.00 0.00 0.00 59 1029.1
20260510075534 65 71 1.0 2.0 0.00 0.00 0.00 58 1028.9
20260510074524 66 56 0.0 2.0 0.00 0.00 0.00 57 1028.7
20260510073541 66 49 0.0 2.0 0.00 0.00 0.00 57 1028.4
20260510072523 66 18 0.0 1.0 0.00 0.00 0.00 56 1028.2
20260510071532 67 45 0.0 2.0 0.00 0.00 0.00 55 1028.0
20260510070520 68 5 5.0 7.0 0.00 0.00 0.00 54 1027.8
20260510065537 68 4 5.0 7.0 0.00 0.00 0.00 53 1027.8
20260510064519 69 2 5.0 9.0 0.00 0.00 0.00 52 1027.6
20260510063529 70 1 5.0 6.0 0.00 0.00 0.00 51 1027.6
20260510062518 70 7 6.0 9.0 0.00 0.00 0.00 49 1027.5
20260510061527 70 351 6.0 8.0 0.00 0.00 0.00 49 1027.4
20260510060536 71 2 6.0 9.0 0.00 0.00 0.00 48 1027.3
20260510055526 71 354 5.0 7.0 0.00 0.00 0.00 47 1027.3
20260510054534 74 349 5.0 7.0 0.00 0.00 0.00 44 1027.2
20260510053522 71 346 5.0 6.0 0.00 0.00 0.00 47 1027.2
20260510052532 72 21 4.0 6.0 0.00 0.00 0.00 46 1027.1
20260510051522 71 345 5.0 7.0 0.00 0.00 0.00 48 1027.1
20260510050532 71 359 5.0 8.0 0.00 0.00 0.00 47 1027.0
20260510045520 72 355 6.0 8.0 0.00 0.00 0.00 46 1027.0
20260510044537 72 349 5.0 7.0 0.00 0.00 0.00 46 1026.9
20260510043518 70 354 5.0 9.0 0.00 0.00 0.00 48 1027.0
20260510042527 70 7 5.0 7.0 0.00 0.00 0.00 48 1026.9
20260510041517 70 360 5.0 8.0 0.00 0.00 0.00 48 1026.9
20260510040526 70 14 6.0 9.0 0.00 0.00 0.00 48 1027.0
20260510035536 71 359 4.0 11.0 0.00 0.00 0.00 48 1027.1
20260510034525 69 360 4.0 6.0 0.00 0.00 0.00 47 1027.0
20260510033534 70 7 5.0 9.0 0.00 0.00 0.00 47 1027.1
20260510032524 69 1 3.0 5.0 0.00 0.00 0.00 49 1027.2
20260510031534 70 19 4.0 7.0 0.00 0.00 0.00 47 1027.2
20260510030522 69 345 6.0 10.0 0.00 0.00 0.00 49 1027.3
20260510025533 68 357 3.0 6.0 0.00 0.00 0.00 49 1027.4
20260510024521 68 333 6.0 9.0 0.00 0.00 0.00 48 1027.6
20260510023530 68 350 6.0 9.0 0.00 0.00 0.00 49 1027.7
20260510022519 66 316 4.0 8.0 0.00 0.00 0.00 51 1028.0
20260510021528 66 12 4.0 8.0 0.00 0.00 0.00 53 1028.1
20260510020517 66 351 3.0 7.0 0.00 0.00 0.00 52 1028.2
20260510015527 66 13 5.0 8.0 0.00 0.00 0.00 54 1028.2
20260510014537 66 359 7.0 10.0 0.00 0.00 0.00 56 1028.5
20260510013533 65 345 7.0 9.0 0.00 0.00 0.00 58 1028.7
20260510012541 64 349 6.0 9.0 0.00 0.00 0.00 62 1028.7
20260510011523 63 318 5.0 11.0 0.00 0.00 0.00 65 1028.7
20260510010532 61 296 2.0 4.0 0.00 0.00 0.00 65 1028.8
20260510005521 60 349 3.0 6.0 0.00 0.00 0.00 67 1028.8
20260510004531 60 326 4.0 6.0 0.00 0.00 0.00 67 1028.8
20260510003520 59 285 2.0 5.0 0.00 0.00 0.00 69 1028.8
20260510002529 58 305 2.0 4.0 0.00 0.00 0.00 71 1028.8
20260510001518 57 279 2.0 3.0 0.00 0.00 0.00 71 1028.7
20260510000527 57 210 2.0 4.0 0.00 0.00 0.00 70 1028.8
20260509235536 56 218 2.0 3.0 0.00 0.00 0.00 72 1028.7
20260509234525 55 173 2.0 4.0 0.00 0.00 0.00 75 1028.7
20260509233536 54 129 2.0 4.0 0.00 0.00 0.00 79 1028.7
20260509232524 53 170 3.0 4.0 0.00 0.00 0.00 81 1028.8
20260509231533 53 174 3.0 6.0 0.00 0.00 0.00 84 1028.8
20260509230529 52 185 2.0 5.0 0.00 0.00 0.00 86 1028.8
20260509225532 51 161 2.0 4.0 0.00 0.00 0.00 92 1028.9
20260509224522 49 95 2.0 3.0 0.00 0.00 0.00 98 1028.7
20260509223530 48 30 1.0 2.0 0.00 0.00 0.00 98 1028.7
20260509222526 47 168 1.0 2.0 0.00 0.00 0.00 98 1028.5
20260509221529 46 301 1.0 2.0 0.00 0.00 0.00 98 1028.5
20260509220531 45 156 1.0 3.0 0.00 0.00 0.00 98 1028.4
20260509215527 44 191 1.0 3.0 0.00 0.00 0.00 99 1028.4
20260509214535 44 177 0.0 2.0 0.00 0.00 0.00 99 1028.3
20260509213525 44 66 1.0 2.0 0.00 0.00 0.00 99 1028.1
20260509212541 44 181 1.0 2.0 0.00 0.00 0.00 99 1028.0
20260509211524 44 206 0.0 4.0 0.00 0.00 0.00 99 1027.9
20260509210546 45 209 2.0 4.0 0.00 0.00 0.00 98 1027.6
20260509205521 45 199 1.0 2.0 0.00 0.00 0.00 97 1027.5
20260509204529 45 19 0.0 2.0 0.00 0.00 0.00 97 1027.3
20260509203517 44 65 0.0 2.0 0.00 0.00 0.00 98 1027.3
20260509202527 45 204 0.0 1.0 0.00 0.00 0.00 97 1027.1
20260509201544 44 145 1.0 2.0 0.00 0.00 0.00 98 1027.1
20260509200525 44 175 1.0 2.0 0.00 0.00 0.00 98 1026.9
20260509195534 45 359 3.0 4.0 0.00 0.00 0.00 97 1026.8
20260509194523 44 47 3.0 5.0 0.00 0.00 0.00 97 1026.7
20260509193533 44 24 2.0 5.0 0.00 0.00 0.00 97 1026.6
20260509192529 43 151 0.0 2.0 0.00 0.00 0.00 97 1026.5
20260509191532 43 307 1.0 3.0 0.00 0.00 0.00 98 1026.4
20260509190521 43 227 0.0 2.0 0.00 0.00 0.00 98 1026.1
20260509185536 44 164 1.0 3.0 0.00 0.00 0.00 97 1026.0
20260509184520 44 16 2.0 3.0 0.00 0.00 0.00 97 1026.1
20260509183529 44 19 0.0 2.0 0.00 0.00 0.00 98 1025.9
20260509182517 44 24 0.0 2.0 0.00 0.00 0.00 98 1025.9
20260509181534 44 193 1.0 2.0 0.00 0.00 0.00 97 1025.8
20260509180536 43 206 1.0 2.0 0.00 0.00 0.00 98 1025.8
20260509175525 44 176 1.0 3.0 0.00 0.00 0.00 98 1025.7
20260509174534 45 200 3.0 4.0 0.00 0.00 0.00 98 1025.6
20260509173530 45 191 3.0 5.0 0.00 0.00 0.00 98 1025.6
20260509172532 45 196 1.0 3.0 0.00 0.00 0.00 97 1025.7
20260509171521 46 6 0.0 2.0 0.00 0.00 0.00 97 1025.7
20260509170539 46 9 1.0 4.0 0.00 0.00 0.00 97 1025.7
20260509165521 45 11 2.0 5.0 0.00 0.00 0.00 97 1025.7
20260509164530 46 22 2.0 4.0 0.00 0.00 0.00 97 1025.7
20260509163519 45 8 2.0 4.0 0.00 0.00 0.00 97 1025.7
20260509162528 45 351 2.0 4.0 0.00 0.00 0.00 97 1025.5
20260509161517 45 195 1.0 2.0 0.00 0.00 0.00 97 1025.5
20260509160527 46 202 1.0 2.0 0.00 0.00 0.00 97 1025.6
20260509155538 46 169 2.0 3.0 0.00 0.00 0.00 97 1025.7
20260509154540 47 142 1.0 3.0 0.00 0.00 0.00 97 1025.7
20260509153534 47 163 2.0 4.0 0.00 0.00 0.00 97 1025.8
20260509152524 47 146 1.0 3.0 0.00 0.00 0.00 96 1025.9